When you browse on this site, cookies collect data to enhance your experience and personalize the content and advertising you see.
Visit our Privacy Policy to learn more. By continuing to use the site, you agree to this use of cookies and data.
  • In Lithuania
  • List of Countries
  • For 7 days
  • Water Temperature
  • Weather Map
  • Weather Widgets
  • user-avatar
    Login

    Hourly Weather Solwezi

    Today, 5 June, Friday

    Time Temperature Precipitation Wind Pressure Humidity
    00:00 +35°C° 0 mm 2 mps 712 mmHg 23%
    01:00 +35°C° 0 mm 2 mps 712 mmHg 24%
    02:00 +34°C° 0 mm 2 mps 712 mmHg 25%
    03:00 +33°C° 0 mm 3 mps 712 mmHg 28%
    04:00 +31°C° 0 mm 3 mps 712 mmHg 31%
    05:00 +32°C° 0 mm 4 mps 713 mmHg 34%
    06:00 +33°C° 0 mm 5 mps 713 mmHg 36%
    07:00 +34°C° 0 mm 5 mps 714 mmHg 37%
    08:00 +34°C° 0 mm 5 mps 715 mmHg 39%
    09:00 +36°C° 0 mm 5 mps 715 mmHg 34%
    10:00 +39°C° 0 mm 5 mps 715 mmHg 29%
    11:00 +41°C° 0 mm 4 mps 715 mmHg 25%
    12:00 +42°C° 0 mm 3 mps 714 mmHg 21%
    13:00 +42°C° 0 mm 2 mps 714 mmHg 17%
    14:00 +40°C° 0 mm 0 mps 713 mmHg 13%
    15:00 +43°C° 0 mm 1 mps 712 mmHg 12%
    16:00 +43°C° 0 mm 1 mps 712 mmHg 12%
    17:00 +43°C° 0 mm 2 mps 711 mmHg 11%
    18:00 +41°C° 0 mm 2 mps 712 mmHg 12%
    19:00 +40°C° 0 mm 2 mps 712 mmHg 13%
    20:00 +37°C° 0 mm 1 mps 712 mmHg 13%
    21:00 +38°C° 0 mm 2 mps 712 mmHg 14%
    22:00 +37°C° 0 mm 2 mps 712 mmHg 15%
    23:00 +36°C° 0 mm 3 mps 712 mmHg 16%

    Tomorrow, 6 June, Saturday

    Time Temperature Precipitation Wind Pressure Humidity
    00:00 +36°C° 0 mm 3 mps 712 mmHg 18%
    01:00 +35°C° 0 mm 3 mps 712 mmHg 20%
    02:00 +35°C° 0 mm 2 mps 712 mmHg 22%
    03:00 +34°C° 0 mm 3 mps 712 mmHg 26%
    04:00 +33°C° 0 mm 4 mps 712 mmHg 31%
    05:00 +33°C° 0 mm 6 mps 712 mmHg 35%
    06:00 +33°C° 0 mm 5 mps 713 mmHg 35%
    07:00 +34°C° 0 mm 4 mps 714 mmHg 35%
    08:00 +35°C° 0 mm 3 mps 715 mmHg 36%
    09:00 +37°C° 0 mm 4 mps 715 mmHg 32%
    10:00 +40°C° 0 mm 4 mps 715 mmHg 27%
    11:00 +41°C° 0 mm 4 mps 715 mmHg 23%
    12:00 +42°C° 0 mm 4 mps 714 mmHg 19%
    13:00 +43°C° 0 mm 3 mps 713 mmHg 15%
    14:00 +43°C° 0 mm 2 mps 713 mmHg 11%
    15:00 +44°C° 0 mm 3 mps 712 mmHg 10%
    16:00 +45°C° 0 mm 3 mps 712 mmHg 9%
    17:00 +45°C° 0 mm 3 mps 711 mmHg 8%
    18:00 +43°C° 0 mm 3 mps 711 mmHg 9%
    19:00 +40°C° 0 mm 2 mps 711 mmHg 9%
    20:00 +38°C° 0 mm 2 mps 711 mmHg 10%
    21:00 +36°C° 0 mm 2 mps 711 mmHg 11%
    22:00 +34°C° 0 mm 1 mps 710 mmHg 11%
    23:00 +33°C° 0 mm 1 mps 710 mmHg 12%

    Day after tomorrow, 7 June, Sunday

    Time Temperature Precipitation Wind Pressure Humidity
    00:00 +33°C° 0 mm 1 mps 710 mmHg 12%
    01:00 +33°C° 0 mm 1 mps 710 mmHg 12%
    02:00 +34°C° 0 mm 2 mps 710 mmHg 13%
    03:00 +33°C° 0 mm 3 mps 710 mmHg 16%
    04:00 +33°C° 0 mm 3 mps 710 mmHg 19%
    05:00 +32°C° 0 mm 4 mps 711 mmHg 22%
    06:00 +32°C° 0 mm 5 mps 711 mmHg 27%
    07:00 +33°C° 0 mm 6 mps 712 mmHg 32%
    08:00 +33°C° 0 mm 6 mps 713 mmHg 37%
    09:00 +36°C° 0 mm 5 mps 713 mmHg 30%
    10:00 +38°C° 0 mm 4 mps 713 mmHg 23%
    11:00 +40°C° 0 mm 3 mps 713 mmHg 16%
    12:00 +42°C° 0 mm 2 mps 713 mmHg 14%
    13:00 +43°C° 0 mm 1 mps 712 mmHg 12%
    14:00 +41°C° 0 mm 0 mps 711 mmHg 9%
    15:00 +44°C° 0 mm 1 mps 711 mmHg 9%
    16:00 +44°C° 0 mm 1 mps 710 mmHg 8%
    17:00 +45°C° 0 mm 2 mps 710 mmHg 7%
    18:00 +41°C° 0 mm 1 mps 710 mmHg 8%
    19:00 +39°C° 0 mm 1 mps 709 mmHg 9%
    20:00 +36°C° 0 mm 1 mps 709 mmHg 10%
    21:00 +35°C° 0 mm 1 mps 710 mmHg 11%
    22:00 +36°C° 0 mm 2 mps 710 mmHg 12%
    23:00 +35°C° 0 mm 2 mps 710 mmHg 12%

    8 June, Monday

    Time Temperature Precipitation Wind Pressure Humidity
    00:00 +35°C° 0 mm 2 mps 710 mmHg 17%
    01:00 +34°C° 0 mm 3 mps 710 mmHg 21%
    02:00 +33°C° 0 mm 3 mps 709 mmHg 26%
    03:00 +33°C° 0 mm 4 mps 710 mmHg 29%
    04:00 +32°C° 0 mm 4 mps 710 mmHg 33%
    05:00 +30°C° 0 mm 5 mps 710 mmHg 37%
    06:00 +32°C° 0 mm 6 mps 710 mmHg 37%
    07:00 +33°C° 0 mm 7 mps 711 mmHg 37%
    08:00 +34°C° 0 mm 7 mps 711 mmHg 37%
    09:00 +36°C° 0 mm 7 mps 711 mmHg 33%
    10:00 +39°C° 0 mm 7 mps 712 mmHg 29%
    11:00 +41°C° 0 mm 7 mps 712 mmHg 26%
    12:00 +42°C° 0 mm 6 mps 711 mmHg 23%
    13:00 +43°C° 0 mm 5 mps 711 mmHg 20%
    14:00 +44°C° 0 mm 4 mps 710 mmHg 17%
    15:00 +44°C° 0 mm 4 mps 710 mmHg 16%
    16:00 +44°C° 0 mm 3 mps 709 mmHg 15%
    17:00 +44°C° 0 mm 3 mps 709 mmHg 14%
    18:00 +42°C° 0 mm 3 mps 709 mmHg 18%
    19:00 +40°C° 0 mm 4 mps 709 mmHg 23%
    20:00 +37°C° 0 mm 4 mps 709 mmHg 27%
    21:00 +37°C° 0 mm 4 mps 709 mmHg 28%
    22:00 +36°C° 0 mm 4 mps 710 mmHg 28%
    23:00 +36°C° 0 mm 3 mps 710 mmHg 28%

    9 June, Tuesday

    Time Temperature Precipitation Wind Pressure Humidity
    00:00 +35°C° 0 mm 3 mps 710 mmHg 29%
    01:00 +35°C° 0 mm 4 mps 710 mmHg 29%
    02:00 +35°C° 0 mm 4 mps 710 mmHg 29%
    03:00 +33°C° 0 mm 5 mps 710 mmHg 37%
    04:00 +32°C° 0 mm 5 mps 710 mmHg 44%
    05:00 +30°C° 0 mm 6 mps 710 mmHg 51%
    06:00 +30°C° 0 mm 5 mps 711 mmHg 51%
    07:00 +32°C° 0 mm 5 mps 711 mmHg 50%
    08:00 +33°C° 0 mm 5 mps 712 mmHg 49%
    09:00 +35°C° 0 mm 5 mps 712 mmHg 44%
    10:00 +38°C° 0 mm 6 mps 713 mmHg 38%
    11:00 +40°C° 0 mm 6 mps 713 mmHg 33%
    12:00 +41°C° 0 mm 6 mps 712 mmHg 31%
    13:00 +41°C° 0 mm 6 mps 712 mmHg 28%
    14:00 +42°C° 0 mm 5 mps 711 mmHg 26%
    15:00 +42°C° 0 mm 5 mps 711 mmHg 25%
    16:00 +42°C° 0 mm 5 mps 710 mmHg 25%
    17:00 +42°C° 0 mm 5 mps 710 mmHg 24%
    18:00 +40°C° 0 mm 5 mps 710 mmHg 27%
    19:00 +38°C° 0 mm 4 mps 710 mmHg 30%
    20:00 +36°C° 0 mm 4 mps 710 mmHg 32%
    21:00 +35°C° 0.2 mm 4 mps 711 mmHg 35%
    22:00 +34°C° 0.2 mm 4 mps 711 mmHg 38%
    23:00 +33°C° 0.2 mm 4 mps 712 mmHg 41%

    10 June, Wednesday

    Time Temperature Precipitation Wind Pressure Humidity
    00:00 +32°C° 0.6 mm 5 mps 712 mmHg 46%
    01:00 +30°C° 0.6 mm 6 mps 712 mmHg 50%
    02:00 +29°C° 0.6 mm 7 mps 712 mmHg 55%
    03:00 +29°C° 0.3 mm 8 mps 712 mmHg 60%
    04:00 +28°C° 0.3 mm 8 mps 713 mmHg 64%
    05:00 +27°C° 0.3 mm 8 mps 713 mmHg 69%
    06:00 +28°C° 0 mm 8 mps 713 mmHg 65%
    07:00 +28°C° 0 mm 8 mps 714 mmHg 62%
    08:00 +29°C° 0 mm 8 mps 714 mmHg 58%
    09:00 +30°C° 0 mm 6 mps 714 mmHg 51%
    10:00 +33°C° 0 mm 5 mps 714 mmHg 43%
    11:00 +35°C° 0 mm 3 mps 714 mmHg 35%
    12:00 +35°C° 0 mm 3 mps 714 mmHg 33%
    13:00 +36°C° 0 mm 3 mps 713 mmHg 30%
    14:00 +37°C° 0 mm 4 mps 712 mmHg 27%
    15:00 +37°C° 0 mm 4 mps 712 mmHg 28%
    16:00 +37°C° 0 mm 5 mps 711 mmHg 29%
    17:00 +37°C° 0 mm 5 mps 711 mmHg 30%
    18:00 +36°C° 0 mm 4 mps 711 mmHg 32%
    19:00 +36°C° 0 mm 3 mps 711 mmHg 34%
    20:00 +35°C° 0 mm 2 mps 711 mmHg 35%
    21:00 +33°C° 0 mm 1 mps 712 mmHg 37%
    22:00 +33°C° 0 mm 1 mps 712 mmHg 39%
    23:00 +30°C° 0 mm 0 mps 712 mmHg 41%
    Show more